Location: Unspecified
(29.9680°N, 0.0000°E)
Time: 12:47:24
(UTC+00:00)

A-11 Canister half - Pass Details

Date: 26 June 2019
Orbit: 1526 x 1683 km, 47.3° (Epoch: 16 August)

Event Time Altitude Azimuth Distance (km) Brightness Sun altitude
Rises 07:32:59 0° 305° (NW) 4,699 11.2 30.2°
Reaches altitude 10° 07:36:35 10° 316° (NW) 3,704 10.8 31.0°
Maximum altitude 07:44:37 31° 16° (NNE) 2,416 10.7 32.7°
Drops below altitude 10° 07:52:39 10° 76° (ENE) 3,703 12.4 34.4°
Sets 07:56:14 0° 87° (E) 4,698 12.6 35.2°
